,,PA_Meas_PMT16A,,PR_Meas_QMR101_102,,RH_Meas_QMH101,,SR_Meas_QMS101,,TA_Meas_QMH101,,GenWind,,GenWind,
time,status,PA,status,PR,status,RH,status,SR,status,TA,status,DirAvg,status,SpdAvg,
2014-03-20, 07:37:04,VALID,918.73,VALID,0,VALID,96.1923,VALID,46.9518,VALID,19.9368,VALID,23,VALID,0.294922,
2014-03-20, 07:38:04,VALID,918.718,VALID,0,VALID,96.1999,VALID,48.5634,VALID,19.9773,VALID,23,VALID,0.313672,
2014-03-20, 07:39:04,VALID,918.71,VALID,0,VALID,96.1846,VALID,48.7783,VALID,19.9383,VALID,23,VALID,0.253516,
2014-03-20, 07:40:04,VALID,918.731,VALID,0,VALID,96.1846,VALID,48.6708,VALID,19.9563,VALID,23,VALID,0,
2014-03-20, 07:41:04,VALID,918.755,VALID,0,VALID,96.1846,VALID,48.8857,VALID,19.9968,VALID,23,VALID,0,
2014-03-20, 07:42:04,VALID,918.741,VALID,0,VALID,96.1923,VALID,49.8527,VALID,19.9953,VALID,23,VALID,0.257031,
2014-03-20, 07:43:04,VALID,918.803,VALID,0,VALID,96.2075,VALID,50.6048,VALID,20.0148,VALID,23,VALID,0.242969,
2014-03-20, 07:44:04,VALID,918.824,VALID,0,VALID,96.1999,VALID,51.7866,VALID,19.9758,VALID,23,VALID,0.425391,
2014-03-20, 07:45:04,VALID,918.834,VALID,0,VALID,96.1999,VALID,53.6131,VALID,19.9563,VALID,23,VALID,0.0121094,
2014-03-20, 07:46:04,VALID,918.807,VALID,0,VALID,96.1923,VALID,55.762,VALID,19.9173,VALID,23,VALID,0,
2014-03-20, 07:47:04,VALID,918.857,VALID,0,VALID,96.1999,VALID,57.9108,VALID,19.9563,VALID,23,VALID,0,
2014-03-20, 07:48:04,VALID,918.884,VALID,0,VALID,96.1999,VALID,59.6298,VALID,19.9758,VALID,23,VALID,0.5625,
2014-03-20, 07:49:04,VALID,918.848,VALID,0,VALID,96.2075,VALID,60.9191,VALID,19.9578,VALID,23,VALID,0.503516,
2014-03-20, 07:50:04,VALID,918.857,VALID,0,VALID,96.1846,VALID,61.9935,VALID,19.8603,VALID,23,VALID,0.391406,
2014-03-20, 07:51:04,VALID,918.846,VALID,0,VALID,96.2075,VALID,62.8531,VALID,19.8003,VALID,23,VALID,0.276953,
2014-03-20, 07:52:04,VALID,918.869,VALID,0,VALID,96.2075,VALID,63.6052,VALID,19.8003,VALID,23,VALID,0.296875,
2014-03-20, 07:53:04,VALID,918.911,VALID,0,VALID,96.177,VALID,64.4647,VALID,19.8603,VALID,23,VALID,0.286328,
2014-03-20, 07:54:04,VALID,918.868,VALID,0,VALID,96.177,VALID,65.6465,VALID,19.8588,VALID,23,VALID,0.457422,
2014-03-20, 07:55:04,VALID,918.896,VALID,0,VALID,96.1846,VALID,66.8284,VALID,19.8393,VALID,24,VALID,0.635938,
2014-03-20, 07:56:04,VALID,918.896,VALID,0,VALID,96.177,VALID,68.0102,VALID,19.8588,VALID,49,VALID,0.773047,
2014-03-20, 07:57:04,VALID,918.913,VALID,0,VALID,96.1694,VALID,68.8698,VALID,19.9188,VALID,49,VALID,0.378906,
2014-03-20, 07:58:04,VALID,918.915,VALID,0,VALID,96.177,VALID,69.5144,VALID,19.9188,VALID,49,VALID,0.689453,
2014-03-20, 07:59:04,VALID,918.909,VALID,0,VALID,96.1694,VALID,70.2665,VALID,19.9563,VALID,49,VALID,0.757031,
2014-03-20, 08:00:04,VALID,918.943,VALID,0,VALID,96.1846,VALID,71.0186,VALID,19.9758,VALID,49,VALID,0.632422,
2014-03-20, 08:01:04,VALID,918.925,VALID,0,VALID,96.1694,VALID,71.4484,VALID,19.8798,VALID,106,VALID,1.11055,
2014-03-20, 08:02:04,VALID,918.972,VALID,0,VALID,96.1541,VALID,71.4484,VALID,19.8978,VALID,110,VALID,0.93125,
2014-03-20, 08:03:04,VALID,918.971,VALID,0,VALID,96.1541,VALID,71.5558,VALID,19.8783,VALID,118,VALID,0.908984,
2014-03-20, 08:04:04,VALID,918.995,VALID,0,VALID,96.1465,VALID,72.3079,VALID,19.8978,VALID,111,VALID,1.23633,
2014-03-20, 08:05:04,VALID,919.006,VALID,0,VALID,96.1465,VALID,72.8451,VALID,19.9173,VALID,121,VALID,1.0332,
2014-03-20, 08:06:04,VALID,919.015,VALID,0,VALID,96.1694,VALID,74.027,VALID,19.9368,VALID,102,VALID,1.17578,
2014-03-20, 08:07:04,VALID,919.027,VALID,0,VALID,96.1618,VALID,75.4237,VALID,19.9368,VALID,105,VALID,0.860156,
2014-03-20, 08:08:04,VALID,919.056,VALID,0,VALID,96.1389,VALID,77.8948,VALID,19.8783,VALID,95,VALID,1.24531,
2014-03-20, 08:09:04,VALID,919.065,VALID,0,VALID,96.1618,VALID,78.0023,VALID,19.8588,VALID,127,VALID,1.27813,
2014-03-20, 08:10:04,VALID,919.096,VALID,0,VALID,96.1389,VALID,79.0767,VALID,19.8783,VALID,128,VALID,1.49414,
2014-03-20, 08:11:04,VALID,919.076,VALID,0,VALID,96.1541,VALID,82.1925,VALID,19.8393,VALID,145,VALID,1.14336,
2014-03-20, 08:12:04,VALID,919.1,VALID,0,VALID,96.1389,VALID,84.4487,VALID,19.8783,VALID,140,VALID,0.576563,
2014-03-20, 08:13:04,VALID,919.144,VALID,0,VALID,96.1236,VALID,87.0273,VALID,19.9173,VALID,125,VALID,1.3875,
2014-03-20, 08:14:04,VALID,919.137,VALID,0,VALID,96.1465,VALID,89.9282,VALID,19.9383,VALID,132,VALID,1.175,
2014-03-20, 08:15:04,VALID,919.148,VALID,0,VALID,96.1389,VALID,91.2175,VALID,19.9188,VALID,139,VALID,1.11094,
2014-03-20, 08:16:04,VALID,919.157,VALID,0,VALID,96.1236,VALID,92.7217,VALID,19.9773,VALID,152,VALID,0.852734,
2014-03-20, 08:17:04,VALID,919.183,VALID,0,VALID,96.1084,VALID,93.7961,VALID,19.9368,VALID,116,VALID,0.653125,
2014-03-20, 08:18:04,VALID,919.191,VALID,0,VALID,96.1389,VALID,95.0854,VALID,19.9968,VALID,131,VALID,0.768359,
2014-03-20, 08:19:04,VALID,919.228,VALID,0,VALID,96.1236,VALID,95.9449,VALID,20.0343,VALID,148,VALID,0.634375,
2014-03-20, 08:20:04,VALID,919.193,VALID,0,VALID,96.116,VALID,96.697,VALID,19.9758,VALID,154,VALID,1.14336,
2014-03-20, 08:21:04,VALID,919.227,VALID,0,VALID,96.1389,VALID,96.8045,VALID,19.9758,VALID,140,VALID,0.525781,
2014-03-20, 08:22:04,VALID,919.239,VALID,0,VALID,96.0855,VALID,97.5566,VALID,20.0148,VALID,140,VALID,0.360938,
2014-03-20, 08:23:04,VALID,919.227,VALID,0,VALID,96.0932,VALID,97.664,VALID,20.0538,VALID,140,VALID,0.352734,
2014-03-20, 08:24:04,VALID,919.255,VALID,0,VALID,96.0932,VALID,99.5979,VALID,20.0944,VALID,151,VALID,0.709766,
2014-03-20, 08:25:04,VALID,919.268,VALID,0,VALID,96.0932,VALID,102.069,VALID,20.1529,VALID,151,VALID,0,
2014-03-20, 08:26:04,VALID,919.298,VALID,0,VALID,96.1008,VALID,104.003,VALID,20.1318,VALID,146,VALID,0.446094,
2014-03-20, 08:27:04,VALID,919.316,VALID,0,VALID,96.0855,VALID,104.54,VALID,20.1139,VALID,151,VALID,0.524609,
2014-03-20, 08:28:04,VALID,919.319,VALID,0,VALID,96.0932,VALID,105.83,VALID,20.1123,VALID,166,VALID,1.09727,
2014-03-20, 08:29:04,VALID,919.344,VALID,0,VALID,96.0855,VALID,107.871,VALID,20.1513,VALID,166,VALID,0.165234,
2014-03-20, 08:30:04,VALID,919.395,VALID,0,VALID,96.0703,VALID,109.375,VALID,20.2098,VALID,148,VALID,0.651563,
2014-03-20, 08:31:04,VALID,919.394,VALID,0,VALID,96.0779,VALID,110.879,VALID,20.1708,VALID,146,VALID,0.874609,
2014-03-20, 08:32:04,VALID,919.422,VALID,0,VALID,96.0474,VALID,112.061,VALID,20.1708,VALID,179,VALID,0.791016,
2014-03-20, 08:33:04,VALID,919.438,VALID,0,VALID,96.055,VALID,113.243,VALID,20.1529,VALID,157,VALID,1.02227,
2014-03-20, 08:34:04,VALID,919.46,VALID,0,VALID,96.0398,VALID,114.425,VALID,20.1318,VALID,153,VALID,0.890234,
2014-03-20, 08:35:04,VALID,919.454,VALID,0,VALID,96.0169,VALID,117.863,VALID,20.1708,VALID,160,VALID,0.831641,
2014-03-20, 08:36:04,VALID,919.481,VALID,0,VALID,96.0169,VALID,121.731,VALID,20.2293,VALID,133,VALID,0.881641,
2014-03-20, 08:37:04,VALID,919.476,VALID,0,VALID,96.0169,VALID,125.491,VALID,20.2489,VALID,151,VALID,0.913281,
2014-03-20, 08:38:04,VALID,919.495,VALID,0,VALID,96.0017,VALID,129.359,VALID,20.2489,VALID,160,VALID,0.429297,
2014-03-20, 08:39:04,VALID,919.512,VALID,0,VALID,96.0017,VALID,133.549,VALID,20.3074,VALID,160,VALID,0.240234,
2014-03-20, 08:40:04,VALID,919.521,VALID,0,VALID,95.9941,VALID,138.492,VALID,20.3269,VALID,160,VALID,0.490625,
2014-03-20, 08:41:04,VALID,919.522,VALID,0,VALID,95.9864,VALID,142.682,VALID,20.2879,VALID,161,VALID,1.06992,
2014-03-20, 08:42:04,VALID,919.543,VALID,0,VALID,95.9559,VALID,146.979,VALID,20.3269,VALID,160,VALID,0.389844,
2014-03-20, 08:43:04,VALID,919.535,VALID,0,VALID,95.9483,VALID,151.277,VALID,20.4049,VALID,161,VALID,0.676953,
2014-03-20, 08:44:04,VALID,919.541,VALID,0,VALID,95.9178,VALID,151.707,VALID,20.4244,VALID,170,VALID,0.762891,
2014-03-20, 08:45:04,VALID,919.546,VALID,0,VALID,95.9254,VALID,157.079,VALID,20.4439,VALID,181,VALID,0.634766,
2014-03-20, 08:46:04,VALID,919.54,VALID,0,VALID,95.9254,VALID,162.021,VALID,20.4829,VALID,179,VALID,0.550391,
2014-03-20, 08:47:04,VALID,919.543,VALID,0,VALID,95.9102,VALID,163.311,VALID,20.5609,VALID,179,VALID,0.539453,
2014-03-20, 08:48:04,VALID,919.516,VALID,0,VALID,95.8797,VALID,159.872,VALID,20.5219,VALID,166,VALID,1.07383,
2014-03-20, 08:49:04,VALID,919.547,VALID,0,VALID,95.8416,VALID,159.335,VALID,20.5804,VALID,168,VALID,0,
2014-03-20, 08:50:04,VALID,919.524,VALID,0,VALID,95.8492,VALID,163.848,VALID,20.639,VALID,183,VALID,0.987109,
2014-03-20, 08:51:04,VALID,919.501,VALID,0,VALID,95.834,VALID,170.187,VALID,20.639,VALID,192,VALID,0.964453,
2014-03-20, 08:52:04,VALID,919.527,VALID,0,VALID,95.7958,VALID,172.658,VALID,20.6569,VALID,199,VALID,0.630078,
2014-03-20, 08:53:04,VALID,919.503,VALID,0,VALID,95.7806,VALID,174.592,VALID,20.756,VALID,199,VALID,0.358594,
2014-03-20, 08:54:04,VALID,919.526,VALID,0,VALID,95.7806,VALID,179.534,VALID,20.7381,VALID,204,VALID,0.813281,
2014-03-20, 08:55:04,VALID,919.516,VALID,0,VALID,95.7196,VALID,180.394,VALID,20.678,VALID,175,VALID,0.962891,
2014-03-20, 08:56:04,VALID,919.499,VALID,0,VALID,95.6815,VALID,182.22,VALID,20.678,VALID,194,VALID,0.590234,
2014-03-20, 08:57:04,VALID,919.521,VALID,0,VALID,95.6434,VALID,183.295,VALID,20.717,VALID,191,VALID,0.785547,
2014-03-20, 08:58:04,VALID,919.502,VALID,0,VALID,95.5595,VALID,184.154,VALID,20.6975,VALID,189,VALID,1.17227,
2014-03-20, 08:59:04,VALID,919.524,VALID,0,VALID,95.468,VALID,185.981,VALID,20.6975,VALID,189,VALID,0.901563,
2014-03-20, 09:00:04,VALID,919.514,VALID,0,VALID,95.3918,VALID,188.774,VALID,20.6975,VALID,194,VALID,0.875391,
2014-03-20, 09:01:04,VALID,919.57,VALID,0,VALID,95.3308,VALID,192.535,VALID,20.7755,VALID,199,VALID,0.727344,
2014-03-20, 09:02:04,VALID,919.545,VALID,0,VALID,95.247,VALID,194.361,VALID,20.7755,VALID,187,VALID,0.703906,
2014-03-20, 09:03:04,VALID,919.577,VALID,0,VALID,95.1631,VALID,196.402,VALID,20.834,VALID,182,VALID,1.27695,
2014-03-20, 09:04:04,VALID,919.568,VALID,0,VALID,95.0183,VALID,198.336,VALID,20.8145,VALID,193,VALID,1.14531,
2014-03-20, 09:05:04,VALID,919.565,VALID,0,VALID,94.881,VALID,199.733,VALID,20.834,VALID,194,VALID,0.98125,
2014-03-20, 09:06:04,VALID,919.606,VALID,0,VALID,94.7819,VALID,200.485,VALID,20.8925,VALID,200,VALID,0.425781,
2014-03-20, 09:07:04,VALID,919.593,VALID,0,VALID,94.6752,VALID,201.774,VALID,20.912,VALID,183,VALID,0.769141,
2014-03-20, 09:08:04,VALID,919.611,VALID,0,VALID,94.5685,VALID,202.634,VALID,20.9885,VALID,183,VALID,0.114844,
2014-03-20, 09:09:04,VALID,919.595,VALID,0,VALID,94.4313,VALID,202.849,VALID,21.0486,VALID,183,VALID,0.707812,
2014-03-20, 09:10:04,VALID,919.643,VALID,0,VALID,94.012,VALID,201.345,VALID,21.0291,VALID,188,VALID,0.744922,
2014-03-20, 09:11:04,VALID,919.645,VALID,0,VALID,93.9434,VALID,202.849,VALID,21.0665,VALID,187,VALID,0.33125,
2014-03-20, 09:12:04,VALID,919.634,VALID,0,VALID,93.9205,VALID,206.502,VALID,21.1461,VALID,172,VALID,0.125,
2014-03-20, 09:13:04,VALID,919.649,VALID,0,VALID,93.3259,VALID,211.767,VALID,21.1461,VALID,117,VALID,1.0043,
2014-03-20, 09:14:04,VALID,919.643,VALID,0,VALID,93.1429,VALID,214.023,VALID,21.1055,VALID,125,VALID,0.741016,
2014-03-20, 09:15:04,VALID,919.631,VALID,0,VALID,93.0667,VALID,217.461,VALID,21.1461,VALID,141,VALID,0.402734,
2014-03-20, 09:16:04,VALID,919.636,VALID,0,VALID,92.533,VALID,223.263,VALID,21.086,VALID,144,VALID,0.882422,
2014-03-20, 09:17:04,VALID,919.621,VALID,0,VALID,92.007,VALID,224.445,VALID,21.0665,VALID,144,VALID,0.745313,
2014-03-20, 09:18:04,VALID,919.629,VALID,0,VALID,92.3653,VALID,230.246,VALID,21.1445,VALID,144,VALID,0.0382813,
2014-03-20, 09:19:04,VALID,919.639,VALID,0,VALID,92.3272,VALID,237.23,VALID,21.2031,VALID,144,VALID,0.360156,
2014-03-20, 09:20:04,VALID,919.619,VALID,0,VALID,92.0223,VALID,244.321,VALID,21.2031,VALID,144,VALID,0.69375,
2014-03-20, 09:21:04,VALID,919.63,VALID,0,VALID,92.6397,VALID,255.065,VALID,21.3608,VALID,87,VALID,1.1168,
2014-03-20, 09:22:04,VALID,919.65,VALID,0,VALID,91.885,VALID,265.272,VALID,21.3201,VALID,80,VALID,1.01445,
2014-03-20, 09:23:04,VALID,919.635,VALID,0,VALID,91.5953,VALID,272.363,VALID,21.2811,VALID,82,VALID,0.746484,
2014-03-20, 09:24:04,VALID,919.632,VALID,0,VALID,91.077,VALID,280.314,VALID,21.2616,VALID,53,VALID,1.39961,
2014-03-20, 09:25:04,VALID,919.641,VALID,0,VALID,91.1761,VALID,283.967,VALID,21.2632,VALID,54,VALID,0.426172,
2014-03-20, 09:26:04,VALID,919.624,VALID,0,VALID,91.8698,VALID,290.306,VALID,21.3396,VALID,53,VALID,0.801562,
2014-03-20, 09:27:04,VALID,919.67,VALID,0,VALID,92.2814,VALID,301.265,VALID,21.4778,VALID,49,VALID,0.619141,
2014-03-20, 09:28:04,VALID,919.633,VALID,0,VALID,91.7402,VALID,307.926,VALID,21.4762,VALID,51,VALID,1.21367,
2014-03-20, 09:29:04,VALID,919.628,VALID,0,VALID,91.5496,VALID,309.108,VALID,21.5152,VALID,59,VALID,0.419141,
2014-03-20, 09:30:04,VALID,919.649,VALID,0,VALID,91.0922,VALID,311.472,VALID,21.5331,VALID,56,VALID,1.46211,
2014-03-20, 09:31:04,VALID,919.576,VALID,0,VALID,91.2752,VALID,328.77,VALID,21.6323,VALID,61,VALID,0.380469,
2014-03-20, 09:32:04,VALID,919.58,VALID,0,VALID,90.1316,VALID,331.563,VALID,21.6128,VALID,88,VALID,0.711328,
2014-03-20, 09:33:04,VALID,919.562,VALID,0,VALID,88.7823,VALID,328.233,VALID,21.5347,VALID,91,VALID,1.21211,
2014-03-20, 09:34:04,VALID,919.607,VALID,0,VALID,89.9868,VALID,351.333,VALID,21.5737,VALID,114,VALID,0.713281,
2014-03-20, 09:35:04,VALID,919.58,VALID,0,VALID,89.9639,VALID,387.863,VALID,21.5542,VALID,102,VALID,0.222266,
2014-03-20, 09:36:04,VALID,919.613,VALID,0,VALID,89.9868,VALID,352.729,VALID,21.5932,VALID,102,VALID,0.501562,
2014-03-20, 09:37:04,VALID,919.626,VALID,0,VALID,90.185,VALID,361.002,VALID,21.6713,VALID,102,VALID,0.105078,
2014-03-20, 09:38:04,VALID,919.673,VALID,0,VALID,89.0567,VALID,431.913,VALID,21.712,VALID,102,VALID,0.397266,
2014-03-20, 09:39:04,VALID,919.661,VALID,0,VALID,88.4545,VALID,445.988,VALID,21.7688,VALID,102,VALID,0,
2014-03-20, 09:40:04,VALID,919.66,VALID,0,VALID,87.8599,VALID,670.863,VALID,21.8469,VALID,101,VALID,0,
2014-03-20, 09:41:04,VALID,919.67,VALID,0,VALID,85.7558,VALID,532.049,VALID,21.9249,VALID,339,VALID,0.719141,
2014-03-20, 09:42:04,VALID,919.688,VALID,0,VALID,84.6809,VALID,441.046,VALID,22.0047,VALID,339,VALID,0.111328,
2014-03-20, 09:43:04,VALID,919.69,VALID,0,VALID,85.7558,VALID,456.303,VALID,22.1005,VALID,345,VALID,0.551172,
2014-03-20, 09:44:04,VALID,919.71,VALID,0,VALID,86.0531,VALID,477.039,VALID,22.1786,VALID,8,VALID,0.628906,
2014-03-20, 09:45:04,VALID,919.697,VALID,0,VALID,83.7585,VALID,470.055,VALID,22.1998,VALID,34,VALID,1.42891,
2014-03-20, 09:46:04,VALID,919.709,VALID,0,VALID,82.6836,VALID,455.013,VALID,22.1591,VALID,18,VALID,0.983203,
2014-03-20, 09:47:04,VALID,919.697,VALID,0,VALID,82.249,VALID,426.112,VALID,22.2176,VALID,20,VALID,1.08398,
2014-03-20, 09:48:04,VALID,919.707,VALID,0,VALID,82.3405,VALID,424.393,VALID,22.2176,VALID,79,VALID,0.897266,
2014-03-20, 09:49:04,VALID,919.71,VALID,0,VALID,83.4535,VALID,436.319,VALID,22.2762,VALID,73,VALID,0.296094,
2014-03-20, 09:50:04,VALID,919.717,VALID,0,VALID,84.6275,VALID,441.583,VALID,22.3916,VALID,73,VALID,0.310937,
2014-03-20, 09:51:04,VALID,919.731,VALID,0,VALID,82.615,VALID,417.946,VALID,22.4518,VALID,75,VALID,0.295703,
2014-03-20, 09:52:04,VALID,919.709,VALID,0,VALID,84.4751,VALID,398.607,VALID,22.5689,VALID,188,VALID,0.412109,
2014-03-20, 09:53:04,VALID,919.741,VALID,0,VALID,85.8473,VALID,387.755,VALID,22.686,VALID,188,VALID,0.282031,
2014-03-20, 09:54:04,VALID,919.745,VALID,0,VALID,82.6988,VALID,382.276,VALID,22.7445,VALID,295,VALID,0.909375,
2014-03-20, 09:55:04,VALID,919.729,VALID,0,VALID,82.8665,VALID,380.449,VALID,22.6647,VALID,295,VALID,0.570703,
2014-03-20, 09:56:04,VALID,919.754,VALID,0,VALID,82.5387,VALID,382.276,VALID,22.5477,VALID,295,VALID,0.727344,
2014-03-20, 09:57:04,VALID,919.741,VALID,0,VALID,82.897,VALID,383.995,VALID,22.4713,VALID,295,VALID,0.771875,
2014-03-20, 09:58:04,VALID,919.74,VALID,0,VALID,82.7674,VALID,386.358,VALID,22.3542,VALID,294,VALID,0.394141,
2014-03-20, 09:59:04,VALID,919.745,VALID,0,VALID,83.9719,VALID,401.722,VALID,22.3933,VALID,294,VALID,0.601953,
2014-03-20, 10:00:04,VALID,919.759,VALID,0,VALID,83.8728,VALID,471.667,VALID,22.4323,VALID,295,VALID,0.451172,
2014-03-20, 10:01:04,VALID,919.747,VALID,0,VALID,81.9898,VALID,427.831,VALID,22.4696,VALID,295,VALID,0.427344,
2014-03-20, 10:02:04,VALID,919.745,VALID,0,VALID,81.1055,VALID,420.417,VALID,22.5477,VALID,315,VALID,0.818359,
2014-03-20, 10:03:04,VALID,919.738,VALID,0,VALID,80.8387,VALID,405.698,VALID,22.5672,VALID,7,VALID,0.426562,
2014-03-20, 10:04:04,VALID,919.716,VALID,0,VALID,84.2159,VALID,388.4,VALID,22.647,VALID,7,VALID,0.389453,
2014-03-20, 10:05:04,VALID,919.762,VALID,0,VALID,83.9033,VALID,376.474,VALID,22.7038,VALID,318,VALID,0.889063,
2014-03-20, 10:06:04,VALID,919.741,VALID,0,VALID,80.5414,VALID,369.168,VALID,22.7038,VALID,297,VALID,1.01211,
2014-03-20, 10:07:04,VALID,919.718,VALID,0,VALID,81.0522,VALID,364.011,VALID,22.6647,VALID,285,VALID,0.655078,
2014-03-20, 10:08:04,VALID,919.724,VALID,0,VALID,79.4055,VALID,364.011,VALID,22.5867,VALID,278,VALID,0.290625,
2014-03-20, 10:09:04,VALID,919.697,VALID,0,VALID,79.1539,VALID,363.259,VALID,22.6062,VALID,280,VALID,0.59375,
2014-03-20, 10:10:04,VALID,919.719,VALID,0,VALID,78.2849,VALID,369.49,VALID,22.5672,VALID,278,VALID,0.64375,
2014-03-20, 10:11:04,VALID,919.683,VALID,0,VALID,78.079,VALID,380.557,VALID,22.6257,VALID,278,VALID,0.344922,
2014-03-20, 10:12:04,VALID,919.663,VALID,0,VALID,79.8477,VALID,395.276,VALID,22.6647,VALID,278,VALID,0.304688,
2014-03-20, 10:13:04,VALID,919.675,VALID,0,VALID,80.671,VALID,417.194,VALID,22.7233,VALID,278,VALID,0.183594,
2014-03-20, 10:14:04,VALID,919.665,VALID,0,VALID,80.8692,VALID,428.153,VALID,22.7818,VALID,278,VALID,0.636328,
2014-03-20, 10:15:04,VALID,919.643,VALID,0,VALID,81.6849,VALID,450.931,VALID,22.9592,VALID,278,VALID,0.476953,
2014-03-20, 10:16:04,VALID,919.64,VALID,0,VALID,82.2185,VALID,481.121,VALID,23.1136,VALID,278,VALID,0.0835937,
2014-03-20, 10:17:04,VALID,919.649,VALID,0,VALID,77.8656,VALID,520.338,VALID,23.252,VALID,278,VALID,0.514453,
2014-03-20, 10:18:04,VALID,919.657,VALID,0,VALID,75.3117,VALID,614.993,VALID,23.2911,VALID,278,VALID,0.967969,
2014-03-20, 10:19:04,VALID,919.648,VALID,0,VALID,73.7413,VALID,645.721,VALID,23.2147,VALID,278,VALID,0.713281,
2014-03-20, 10:20:04,VALID,919.638,VALID,0,VALID,74.8848,VALID,606.398,VALID,23.1739,VALID,278,VALID,0.783594,
2014-03-20, 10:21:04,VALID,919.612,VALID,0,VALID,75.9445,VALID,547.628,VALID,23.1935,VALID,278,VALID,0.255469,
2014-03-20, 10:22:04,VALID,919.612,VALID,0,VALID,78.1324,VALID,508.089,VALID,23.3674,VALID,1,VALID,0.507422,
2014-03-20, 10:23:04,VALID,919.625,VALID,0,VALID,76.4247,VALID,476.824,VALID,23.543,VALID,6,VALID,1.10977,
2014-03-20, 10:24:04,VALID,919.643,VALID,0,VALID,75.7844,VALID,459.203,VALID,23.7187,VALID,2,VALID,0.936328,
2014-03-20, 10:25:04,VALID,919.657,VALID,0,VALID,73.3601,VALID,437.178,VALID,23.7578,VALID,328,VALID,1.12422,
2014-03-20, 10:26:04,VALID,919.634,VALID,0,VALID,72.6512,VALID,419.987,VALID,23.5608,VALID,309,VALID,1.05234,
2014-03-20, 10:27:04,VALID,919.63,VALID,0,VALID,74.557,VALID,406.45,VALID,23.3656,VALID,320,VALID,1.09219,
2014-03-20, 10:28:04,VALID,919.648,VALID,0,VALID,75.266,VALID,399.251,VALID,23.3851,VALID,320,VALID,1.10352,
2014-03-20, 10:29:04,VALID,919.607,VALID,0,VALID,75.7234,VALID,392.697,VALID,23.3496,VALID,324,VALID,0.948438,
2014-03-20, 10:30:04,VALID,919.631,VALID,0,VALID,75.5557,VALID,385.069,VALID,23.3283,VALID,332,VALID,0.700391,
2014-03-20, 10:31:04,VALID,919.61,VALID,0,VALID,76.6763,VALID,380.342,VALID,23.3674,VALID,318,VALID,0.802344,
2014-03-20, 10:32:04,VALID,919.62,VALID,0,VALID,75.8835,VALID,381.524,VALID,23.268,VALID,305,VALID,0.882031,
2014-03-20, 10:33:04,VALID,919.619,VALID,0,VALID,77.4234,VALID,386.573,VALID,23.229,VALID,315,VALID,0.760547,
2014-03-20, 10:34:04,VALID,919.617,VALID,0,VALID,77.0956,VALID,394.846,VALID,23.1917,VALID,315,VALID,0.691797,
2014-03-20, 10:35:04,VALID,919.608,VALID,0,VALID,75.9292,VALID,399.789,VALID,23.1722,VALID,315,VALID,0.478906,
2014-03-20, 10:36:04,VALID,919.585,VALID,0,VALID,76.318,VALID,403.119,VALID,23.2307,VALID,315,VALID,0.0804688,
2014-03-20, 10:37:04,VALID,919.576,VALID,0,VALID,76.6611,VALID,404.946,VALID,23.3496,VALID,315,VALID,0.357031,
2014-03-20, 10:38:04,VALID,919.57,VALID,0,VALID,75.5557,VALID,405.053,VALID,23.465,VALID,355,VALID,0.847266,
2014-03-20, 10:39:04,VALID,919.541,VALID,0,VALID,74.4884,VALID,405.59,VALID,23.6016,VALID,301,VALID,0.614062,
2014-03-20, 10:40:04,VALID,919.517,VALID,0,VALID,74.9915,VALID,407.739,VALID,23.6797,VALID,327,VALID,0.988672,
2014-03-20, 10:41:04,VALID,919.539,VALID,0,VALID,75.2736,VALID,411.177,VALID,23.6602,VALID,300,VALID,0.730859,
2014-03-20, 10:42:04,VALID,919.561,VALID,0,VALID,76.1046,VALID,417.946,VALID,23.6797,VALID,301,VALID,0.589844,
2014-03-20, 10:43:04,VALID,919.566,VALID,0,VALID,76.4324,VALID,425.574,VALID,23.7382,VALID,321,VALID,0.189844,
2014-03-20, 10:44:04,VALID,919.557,VALID,0,VALID,75.3575,VALID,435.996,VALID,23.8554,VALID,216,VALID,0.378516,
2014-03-20, 10:45:04,VALID,919.574,VALID,0,VALID,74.8924,VALID,447.815,VALID,23.992,VALID,216,VALID,0.269922,
2014-03-20, 10:46:04,VALID,919.547,VALID,0,VALID,74.0539,VALID,458.666,VALID,24.1269,VALID,216,VALID,0.771094,
2014-03-20, 10:47:04,VALID,919.559,VALID,0,VALID,73.0628,VALID,476.931,VALID,24.2849,VALID,216,VALID,0.75625,
2014-03-20, 10:48:04,VALID,919.543,VALID,0,VALID,72.026,VALID,518.726,VALID,24.3611,VALID,218,VALID,0.881641,
2014-03-20, 10:49:04,VALID,919.539,VALID,0,VALID,71.0426,VALID,481.229,VALID,24.4801,VALID,216,VALID,0.832031,
2014-03-20, 10:50:04,VALID,919.504,VALID,0,VALID,71.8278,VALID,477.791,VALID,24.402,VALID,216,VALID,0.774609,
2014-03-20, 10:51:04,VALID,919.47,VALID,0,VALID,73.3373,VALID,471.559,VALID,24.4002,VALID,216,VALID,0.325,
2014-03-20, 10:52:04,VALID,919.465,VALID,0,VALID,75.3727,VALID,480.262,VALID,24.5387,VALID,2,VALID,0.448438,
2014-03-20, 10:53:04,VALID,919.478,VALID,0,VALID,71.622,VALID,478.758,VALID,24.6754,VALID,333,VALID,0.928125,
2014-03-20, 10:54:04,VALID,919.431,VALID,0,VALID,69.7238,VALID,485.312,VALID,24.6754,VALID,327,VALID,0.90625,
2014-03-20, 10:55:04,VALID,919.402,VALID,0,VALID,68.6565,VALID,487.031,VALID,24.6149,VALID,319,VALID,1.17422,
2014-03-20, 10:56:04,VALID,919.399,VALID,0,VALID,69.8076,VALID,482.733,VALID,24.4801,VALID,312,VALID,0.957031,
2014-03-20, 10:57:04,VALID,919.352,VALID,0,VALID,69.4341,VALID,516.362,VALID,24.3221,VALID,358,VALID,1.52539,
2014-03-20, 10:58:04,VALID,919.336,VALID,0,VALID,70.2345,VALID,587.918,VALID,24.402,VALID,359,VALID,0.261719,
2014-03-20, 10:59:04,VALID,919.318,VALID,0,VALID,69.8457,VALID,720.393,VALID,24.4587,VALID,274,VALID,0.781641,
2014-03-20, 11:00:04,VALID,919.301,VALID,0,VALID,71.3628,VALID,808.172,VALID,24.6345,VALID,296,VALID,0.732422,
2014-03-20, 11:01:04,VALID,919.299,VALID,0,VALID,68.2143,VALID,799.04,VALID,24.7126,VALID,28,VALID,1.53984,
2014-03-20, 11:02:04,VALID,919.255,VALID,0,VALID,67.2538,VALID,844.595,VALID,24.8511,VALID,9,VALID,1.36289,
2014-03-20, 11:03:04,VALID,919.256,VALID,0,VALID,66.1026,VALID,710.508,VALID,25.0445,VALID,7,VALID,0.607031,
2014-03-20, 11:04:04,VALID,919.231,VALID,0,VALID,65.6376,VALID,695.037,VALID,25.2417,VALID,5,VALID,0.323828,
2014-03-20, 11:05:04,VALID,919.204,VALID,0,VALID,66.0721,VALID,600.489,VALID,25.3784,VALID,6,VALID,0.180078,
2014-03-20, 11:06:04,VALID,919.202,VALID,0,VALID,64.5322,VALID,534.52,VALID,25.4351,VALID,318,VALID,0.992578,
2014-03-20, 11:07:04,VALID,919.176,VALID,0,VALID,64.9896,VALID,554.504,VALID,25.2593,VALID,318,VALID,1.67656,
2014-03-20, 11:08:04,VALID,919.137,VALID,0,VALID,66.3313,VALID,548.487,VALID,24.8688,VALID,318,VALID,0.871875,
2014-03-20, 11:09:04,VALID,919.145,VALID,0,VALID,67.269,VALID,549.991,VALID,24.7711,VALID,318,VALID,0.562891,
2014-03-20, 11:10:04,VALID,919.107,VALID,0,VALID,66.7354,VALID,630.894,VALID,24.693,VALID,317,VALID,0.670703,
2014-03-20, 11:11:04,VALID,919.112,VALID,0,VALID,67.2995,VALID,800.007,VALID,24.6949,VALID,279,VALID,0.129297,